����,���ϕ���(m/s),���ϕ���,�ő�u�ԕ���(m/s),�ő啗��������,�C��(��),���x(%),10���Ԉړ��ώZ�J��(mm),1���Ԉړ��ώZ�J��(mm),���J��(mm),�݌v�J��(mm)
2021-07-05T00:00:00+09:00,1.9,�쐼,4.8,��,26.2,88.5,0,0,1,16.5
2021-07-05T00:01:00+09:00,1.8,�쐼,3.7,���쐼,26.2,88.8,0,0,0,16.5
2021-07-05T00:02:00+09:00,1.7,�쐼,3.2,�쐼,26.2,88.9,0,0,0,16.5
2021-07-05T00:03:00+09:00,1.6,��쐼,3.2,�쐼,26.2,88.8,0,0,0,16.5
2021-07-05T00:04:00+09:00,1.4,�쐼,3.2,�쐼,26.2,88.7,0,0,0,16.5
2021-07-05T00:05:00+09:00,1.4,�쐼,3.2,�쐼,26.2,88.7,0,0,0,16.5
2021-07-05T00:06:00+09:00,1.4,�쐼,3.2,�쐼,26.2,88.8,0,0,0,16.5
2021-07-05T00:07:00+09:00,1.3,�쐼,3.2,�쐼,26.2,88.6,0,0,0,16.5
2021-07-05T00:08:00+09:00,1.4,�쐼,3.2,�쐼,26.2,88.6,0,0,0,16.5
2021-07-05T00:09:00+09:00,1.4,��쐼,3.2,�쐼,26.1,88.6,0,0,0,16.5
2021-07-05T00:10:00+09:00,1.2,��쐼,2.7,��,26.1,88.7,0,0,0,16.5
2021-07-05T00:11:00+09:00,1.2,��쐼,2.7,��,26.2,88.8,0,0,0,16.5
2021-07-05T00:12:00+09:00,1.2,��쐼,3.1,���쐼,26.2,88.8,0,0,0,16.5
2021-07-05T00:13:00+09:00,1.3,�쐼,3.1,���쐼,26.2,88.7,0,0,0,16.5
2021-07-05T00:14:00+09:00,1.3,�쐼,3.1,���쐼,26.2,88.6,0,0,0,16.5
2021-07-05T00:15:00+09:00,1.4,�쐼,3.1,���쐼,26.2,88.5,0,0,0,16.5
2021-07-05T00:16:00+09:00,1.5,�쐼,4.1,��,26.2,88.6,0,0,0,16.5
2021-07-05T00:17:00+09:00,1.7,�쐼,4.1,��,26.2,88.6,0,0,0,16.5
2021-07-05T00:18:00+09:00,1.7,���쐼,4.4,��,26.2,88.5,0,0,0,16.5
2021-07-05T00:19:00+09:00,1.8,���쐼,4.4,��,26.2,88.5,0,0,0,16.5
2021-07-05T00:20:00+09:00,1.9,���쐼,4.4,��,26.2,88.9,0,0,0,16.5
2021-07-05T00:21:00+09:00,2,���쐼,4.4,��,26.2,88.8,0,0,0,16.5
2021-07-05T00:22:00+09:00,2.1,���쐼,4.4,��,26.2,88.6,0,0,0,16.5
2021-07-05T00:23:00+09:00,2,���쐼,4.4,��,26.2,88.7,0,0,0,16.5
2021-07-05T00:24:00+09:00,2.2,���쐼,4.4,��,26.2,88.7,0,0,0,16.5
2021-07-05T00:25:00+09:00,2.2,���쐼,4.4,��,26.2,88.6,0,0,0,16.5
2021-07-05T00:26:00+09:00,2.1,���쐼,4.4,��,26.2,88.4,0,0,0,16.5
2021-07-05T00:27:00+09:00,2,���쐼,4.4,��,26.2,88.7,0,0,0,16.5
2021-07-05T00:28:00+09:00,2,���쐼,3.9,���쐼,26.2,88.7,0,0,0,16.5
2021-07-05T00:29:00+09:00,1.9,���쐼,3.9,���쐼,26.2,88.6,0,0,0,16.5
2021-07-05T00:30:00+09:00,2,���쐼,3.9,���쐼,26.3,89,0,0,0,16.5
2021-07-05T00:31:00+09:00,1.9,�쐼,3.9,���쐼,26.3,88.6,0,0,0,16.5
2021-07-05T00:32:00+09:00,1.9,�쐼,3.9,���쐼,26.3,88,0,0,0,16.5
2021-07-05T00:33:00+09:00,2,�쐼,3.9,���쐼,26.2,87.8,0,0,0,16.5
2021-07-05T00:34:00+09:00,1.9,�쐼,3.8,��,26.2,87.9,0,0,0,16.5
2021-07-05T00:35:00+09:00,1.9,�쐼,3.8,��,26.2,88.2,0,0,0,16.5
2021-07-05T00:36:00+09:00,1.9,�쐼,3.8,��,26.2,88.3,0,0,0,16.5
2021-07-05T00:37:00+09:00,2,�쐼,3.8,��,26.2,88.3,0,0,0,16.5
2021-07-05T00:38:00+09:00,2.1,�쐼,3.8,��,26.2,88.6,0,0,0,16.5
2021-07-05T00:39:00+09:00,2.3,�쐼,5.1,���쐼,26.1,88.9,0,0,0,16.5
2021-07-05T00:40:00+09:00,2.4,�쐼,5.1,���쐼,26.1,89.2,0,0,0,16.5
2021-07-05T00:41:00+09:00,2.4,���쐼,5.1,���쐼,26,89.1,0,0,0,16.5
2021-07-05T00:42:00+09:00,2.3,���쐼,5.1,���쐼,26,89.4,0,0,0,16.5
2021-07-05T00:43:00+09:00,2.3,���쐼,5.1,���쐼,26,89.7,0,0,0,16.5
2021-07-05T00:44:00+09:00,2.1,���쐼,5.1,���쐼,26,89.6,0,0,0,16.5
2021-07-05T00:45:00+09:00,2,���쐼,5.1,���쐼,26.1,89.8,0,0,0,16.5
2021-07-05T00:46:00+09:00,2,���쐼,5.1,���쐼,26,89.6,0,0,0,16.5
2021-07-05T00:47:00+09:00,2,���쐼,5.1,���쐼,26.1,89.9,0,0,0,16.5
2021-07-05T00:48:00+09:00,2,���쐼,5.1,���쐼,26.1,90,0,0,0,16.5
2021-07-05T00:49:00+09:00,1.9,���쐼,4.1,��,26,90.3,0,0,0,16.5
2021-07-05T00:50:00+09:00,1.7,���쐼,4.2,��,26,90.1,0,0,0,16.5
2021-07-05T00:51:00+09:00,1.9,���쐼,5.1,���쐼,26,90.1,0,0,0,16.5
2021-07-05T00:52:00+09:00,2.1,���쐼,5.1,���쐼,26,90.5,0,0,0,16.5
2021-07-05T00:53:00+09:00,2.2,���쐼,5.1,���쐼,26,90.4,0,0,0,16.5
2021-07-05T00:54:00+09:00,2.3,���쐼,5.1,���쐼,25.9,90.2,0,0,0,16.5
2021-07-05T00:55:00+09:00,2.3,���쐼,5.1,���쐼,26,90.6,0,0,0,16.5
2021-07-05T00:56:00+09:00,2.3,���쐼,5.1,���쐼,25.9,90.3,0,0,0,16.5
2021-07-05T00:57:00+09:00,2.3,���쐼,5.1,���쐼,25.9,90.6,0,0,0,16.5
2021-07-05T00:58:00+09:00,2.2,���쐼,5.1,���쐼,25.9,90.9,0,0,0,16.5
2021-07-05T00:59:00+09:00,2.2,�쐼,5.1,���쐼,25.9,90.9,0,0,0,16.5
2021-07-05T01:00:00+09:00,2.1,�쐼,5.1,���쐼,25.9,90.9,0,0,0,16.5
2021-07-05T01:01:00+09:00,1.9,�쐼,4.2,��,25.9,90.8,0,0,0,16.5
2021-07-05T01:02:00+09:00,1.8,�쐼,4.3,�쐼,25.9,90.8,0,0,0,16.5
2021-07-05T01:03:00+09:00,1.8,�쐼,4.3,�쐼,25.9,90.8,0,0,0,16.5
2021-07-05T01:04:00+09:00,1.8,�쐼,4.3,�쐼,26,90.8,0,0,0,16.5
2021-07-05T01:05:00+09:00,1.8,�쐼,4.3,�쐼,25.9,90.5,0,0,0,16.5
2021-07-05T01:06:00+09:00,1.8,�쐼,4.3,�쐼,25.9,90.6,0,0,0,16.5
2021-07-05T01:07:00+09:00,1.7,�쐼,4.3,�쐼,25.9,90.7,0,0,0,16.5
2021-07-05T01:08:00+09:00,1.6,�쐼,4.3,�쐼,26,90.7,0,0,0,16.5
2021-07-05T01:09:00+09:00,1.6,�쐼,4.3,�쐼,26,90.6,0,0,0,16.5
2021-07-05T01:10:00+09:00,1.5,�쐼,4.3,�쐼,26,90.4,0,0,0,16.5
2021-07-05T01:11:00+09:00,1.4,�쐼,4.3,�쐼,26,90.2,0,0,0,16.5
2021-07-05T01:12:00+09:00,1.3,�쐼,4.2,���쐼,26,90.3,0,0,0,16.5
2021-07-05T01:13:00+09:00,1.2,�쐼,3.3,���쐼,26,90.5,0,0,0,16.5
2021-07-05T01:14:00+09:00,1.2,�쐼,3.3,���쐼,25.9,90.5,0,0,0,16.5
2021-07-05T01:15:00+09:00,1.2,�쐼,4.4,��,25.9,90.5,0,0,0,16.5
2021-07-05T01:16:00+09:00,1.4,���쐼,4.8,���쐼,25.9,90.5,0,0,0,16.5
2021-07-05T01:17:00+09:00,1.5,���쐼,5.2,��,25.8,90.7,0,0,0,16.5
2021-07-05T01:18:00+09:00,1.7,���쐼,5.2,��,25.8,90.9,0,0,0,16.5
2021-07-05T01:19:00+09:00,1.9,���쐼,6,��,25.8,91.2,0,0,0,16.5
2021-07-05T01:20:00+09:00,2.3,���쐼,6,��,25.8,91.1,0,0,0,16.5
2021-07-05T01:21:00+09:00,2.5,���쐼,6,��,25.7,91.5,0,0,0,16.5
2021-07-05T01:22:00+09:00,2.9,���쐼,7.8,���쐼,25.7,91.5,0,0,0,16.5
2021-07-05T01:23:00+09:00,3.3,���쐼,7.8,���쐼,25.7,91.9,0,0,0,16.5
2021-07-05T01:24:00+09:00,3.7,���쐼,7.8,���쐼,25.7,92.1,0,0,0,16.5
2021-07-05T01:25:00+09:00,4.2,���쐼,7.8,���쐼,25.7,92.3,0,0,0,16.5
2021-07-05T01:26:00+09:00,4.3,���쐼,7.8,���쐼,25.7,92.4,0,0,0,16.5
2021-07-05T01:27:00+09:00,4.5,���쐼,7.8,���쐼,25.7,92.1,0,0,0,16.5
2021-07-05T01:28:00+09:00,4.6,���쐼,7.8,���쐼,25.7,92,0,0,0,16.5
2021-07-05T01:29:00+09:00,4.7,���쐼,7.8,���쐼,25.7,92.1,0,0,0,16.5
2021-07-05T01:30:00+09:00,4.7,��,7.8,���쐼,25.7,92,0,0,0,16.5
2021-07-05T01:31:00+09:00,4.7,���쐼,7.8,���쐼,25.7,92,0,0,0,16.5
2021-07-05T01:32:00+09:00,4.5,���쐼,7.7,��,25.7,92.2,0,0,0,16.5
2021-07-05T01:33:00+09:00,4.3,���쐼,7.7,��,25.7,92.6,0,0,0,16.5
2021-07-05T01:34:00+09:00,4.2,���쐼,7.7,��,25.7,92.5,0,0,0,16.5
2021-07-05T01:35:00+09:00,4,���쐼,7.1,��,25.7,92.4,0,0,0,16.5
2021-07-05T01:36:00+09:00,3.9,���쐼,7.1,��,25.6,92.3,0,0,0,16.5
2021-07-05T01:37:00+09:00,3.6,���쐼,6.2,���쐼,25.7,92.7,0,0,0,16.5
2021-07-05T01:38:00+09:00,3.6,���쐼,5.8,��,25.7,92.8,0,0,0,16.5
2021-07-05T01:39:00+09:00,3.5,���쐼,5.7,��,25.7,92.8,0,0,0,16.5
2021-07-05T01:40:00+09:00,3.5,���쐼,5.7,��,25.6,92.8,0,0,0,16.5
2021-07-05T01:41:00+09:00,3.6,���쐼,5.8,���쐼,25.6,92.8,0,0,0,16.5
2021-07-05T01:42:00+09:00,3.7,���쐼,5.8,���쐼,25.6,92.8,0,0,0,16.5
2021-07-05T01:43:00+09:00,3.8,���쐼,5.8,���쐼,25.6,92.8,0,0,0,16.5
2021-07-05T01:44:00+09:00,3.9,���쐼,5.9,��,25.6,92.8,0,0,0,16.5
2021-07-05T01:45:00+09:00,4,��,6.7,���쐼,25.6,92.8,0,0,0,16.5
2021-07-05T01:46:00+09:00,4.2,��,6.7,���쐼,25.6,92.7,0,0,0,16.5
2021-07-05T01:47:00+09:00,4.4,��,6.7,���쐼,25.6,92.7,0,0,0,16.5
2021-07-05T01:48:00+09:00,4.6,��,6.7,���쐼,25.6,92.8,0,0,0,16.5
2021-07-05T01:49:00+09:00,4.6,��,6.7,���쐼,25.6,92.9,0,0,0,16.5
2021-07-05T01:50:00+09:00,4.8,��,6.7,���쐼,25.6,93.1,0,0,0,16.5
2021-07-05T01:51:00+09:00,4.8,��,7,��,25.6,93.1,0,0,0,16.5
2021-07-05T01:52:00+09:00,5,��,7,��,25.5,93,0,0,0,16.5
2021-07-05T01:53:00+09:00,5.1,��,7,��,25.5,93.2,0,0,0,16.5
2021-07-05T01:54:00+09:00,5.1,��,7,��,25.5,93.1,0,0,0,16.5
2021-07-05T01:55:00+09:00,5,��,7,��,25.5,93.1,0,0,0,16.5
2021-07-05T01:56:00+09:00,5,��,7,��,25.5,93.2,0,0,0,16.5
2021-07-05T01:57:00+09:00,5,��,7,��,25.5,93.5,0,0,0,16.5
2021-07-05T01:58:00+09:00,4.9,��,7,��,25.6,93.5,0,0,0,16.5
2021-07-05T01:59:00+09:00,4.9,��,7,��,25.5,93.2,0,0,0,16.5
2021-07-05T02:00:00+09:00,4.8,��,7,��,25.5,93.2,0,0,0,16.5
2021-07-05T02:01:00+09:00,4.8,��,6.7,��,25.5,93.1,0,0,0,16.5
2021-07-05T02:02:00+09:00,4.6,��,6.3,��,25.5,93.2,0,0,0,16.5
2021-07-05T02:03:00+09:00,4.6,��,6.8,���쐼,25.5,93.4,0,0,0,16.5
2021-07-05T02:04:00+09:00,4.7,��,7.5,��,25.5,93.5,0,0,0,16.5
2021-07-05T02:05:00+09:00,4.7,��,7.5,��,25.5,93.5,0,0,0,16.5
2021-07-05T02:06:00+09:00,4.6,��,7.5,��,25.5,93.4,0,0,0,16.5
2021-07-05T02:07:00+09:00,4.4,��,7.5,��,25.6,93.4,0,0,0,16.5
2021-07-05T02:08:00+09:00,4.2,���쐼,7.5,��,25.6,93.3,0,0,0,16.5
2021-07-05T02:09:00+09:00,4.1,���쐼,7.5,��,25.6,93.2,0,0,0,16.5
2021-07-05T02:10:00+09:00,3.9,���쐼,7.5,��,25.6,93.3,0,0,0,16.5
2021-07-05T02:11:00+09:00,3.6,���쐼,7.5,��,25.6,93.1,0,0,0,16.5
2021-07-05T02:12:00+09:00,3.5,��,7.5,��,25.6,93.2,0,0,0,16.5
2021-07-05T02:13:00+09:00,3.5,��,7.5,��,25.6,92.9,0,0,0,16.5
2021-07-05T02:14:00+09:00,3.3,���쐼,6.7,���쐼,25.6,92.7,0,0,0,16.5
2021-07-05T02:15:00+09:00,3.1,���쐼,5.9,���쐼,25.6,92.6,0,0,0,16.5
2021-07-05T02:16:00+09:00,3.1,���쐼,5.9,���쐼,25.6,92.6,0,0,0,16.5
2021-07-05T02:17:00+09:00,3.1,���쐼,5.9,���쐼,25.6,92.6,0,0,0,16.5
2021-07-05T02:18:00+09:00,3.1,���쐼,5.9,���쐼,25.7,92.4,0,0,0,16.5
2021-07-05T02:19:00+09:00,3.1,���쐼,5.9,���쐼,25.7,91.9,0,0,0,16.5
2021-07-05T02:20:00+09:00,3.1,���쐼,5.9,���쐼,25.8,91.7,0,0,0,16.5
2021-07-05T02:21:00+09:00,3.1,���쐼,5.9,���쐼,25.8,91.5,0,0,0,16.5
2021-07-05T02:22:00+09:00,3.1,���쐼,5.9,���쐼,25.8,91.7,0,0,0,16.5
2021-07-05T02:23:00+09:00,3,���쐼,5.9,���쐼,25.8,91.4,0,0,0,16.5
2021-07-05T02:24:00+09:00,2.8,���쐼,4.7,���쐼,25.8,91.3,0,0,0,16.5
2021-07-05T02:25:00+09:00,2.8,���쐼,4.8,��,25.7,91.3,0,0,0,16.5
2021-07-05T02:26:00+09:00,2.8,���쐼,4.8,��,25.7,91.5,0,0,0,16.5
2021-07-05T02:27:00+09:00,2.8,���쐼,4.8,��,25.7,91.7,0,0,0,16.5
2021-07-05T02:28:00+09:00,2.9,���쐼,5.2,��,25.7,91.5,0,0,0,16.5
2021-07-05T02:29:00+09:00,3.1,��,5.2,��,25.6,91.4,0,0,0,16.5
2021-07-05T02:30:00+09:00,3.3,��,5.9,��,25.6,91.5,0,0,0,16.5
2021-07-05T02:31:00+09:00,3.4,��,5.9,��,25.7,91.5,0,0,0,16.5
2021-07-05T02:32:00+09:00,3.5,��,5.9,��,25.7,91.4,0,0,0,16.5
2021-07-05T02:33:00+09:00,3.7,��,5.9,��,25.7,91.4,0,0,0,16.5
2021-07-05T02:34:00+09:00,3.9,��,5.9,��,25.7,91.4,0,0,0,16.5
2021-07-05T02:35:00+09:00,3.9,��,5.9,��,25.7,91.3,0,0,0,16.5
2021-07-05T02:36:00+09:00,4,��,5.9,��,25.7,91.5,0,0,0,16.5
2021-07-05T02:37:00+09:00,4.2,��,5.9,��,25.7,91.5,0,0,0,16.5
2021-07-05T02:38:00+09:00,4,��,5.9,��,25.7,91.8,0,0,0,16.5
2021-07-05T02:39:00+09:00,4.1,��,5.9,��,25.6,91.6,0,0,0,16.5
2021-07-05T02:40:00+09:00,4.1,��,6,��,25.6,91.8,0,0,0,16.5
2021-07-05T02:41:00+09:00,4.2,��,6,��,25.6,92.3,0,0,0,16.5
2021-07-05T02:42:00+09:00,4.3,��,6.3,���쐼,25.5,92.1,0,0,0,16.5
2021-07-05T02:43:00+09:00,4.4,��,6.9,��,25.5,92.4,0,0,0,16.5
2021-07-05T02:44:00+09:00,4.5,��,6.9,��,25.5,92.5,0,0,0,16.5
2021-07-05T02:45:00+09:00,4.6,��,6.9,��,25.5,92.6,0,0,0,16.5
2021-07-05T02:46:00+09:00,4.6,��,6.9,��,25.5,92.7,0,0,0,16.5
2021-07-05T02:47:00+09:00,4.8,��,6.9,��,25.5,93,0,0,0,16.5
2021-07-05T02:48:00+09:00,5,��,6.9,��,25.5,93.2,0,0,0,16.5
2021-07-05T02:49:00+09:00,5,��,6.9,��,25.5,93.1,0,0,0,16.5
2021-07-05T02:50:00+09:00,5.2,��,6.9,��,25.4,93.1,0,0,0,16.5
2021-07-05T02:51:00+09:00,5.3,��,6.9,��,25.4,93.4,0,0,0,16.5
2021-07-05T02:52:00+09:00,5.1,��,6.9,��,25.4,93.8,0,0,0,16.5
2021-07-05T02:53:00+09:00,5,��,6.9,���쐼,25.4,94.1,0,0,0,16.5
2021-07-05T02:54:00+09:00,5,��,7.1,��,25.4,94,0,0,0,16.5
2021-07-05T02:55:00+09:00,5,��,7.1,��,25.3,93.7,0,0,0,16.5
2021-07-05T02:56:00+09:00,5,��,7.1,��,25.3,93.9,0,0,0,16.5
2021-07-05T02:57:00+09:00,4.8,��,7.1,��,25.3,94.2,0,0,0,16.5
2021-07-05T02:58:00+09:00,4.9,��,7.1,��,25.3,94.6,0,0,0,16.5
2021-07-05T02:59:00+09:00,4.8,��,7.1,��,25.2,94.5,0,0,0,16.5
2021-07-05T03:00:00+09:00,4.6,��,7.1,��,25.2,94.8,0,0,0,16.5
2021-07-05T03:01:00+09:00,4.4,��,7.1,��,25.2,94.9,0,0,0,16.5
2021-07-05T03:02:00+09:00,4.4,��,7.1,��,25.3,95.2,0,0,0,16.5
2021-07-05T03:03:00+09:00,4.4,��,7.1,��,25.2,95.1,0,0,0,16.5
2021-07-05T03:04:00+09:00,4.3,��,6.3,���쐼,25.2,94.9,0,0,0,16.5
2021-07-05T03:05:00+09:00,4.2,��,6.3,���쐼,25.1,95.1,0,0,0,16.5
2021-07-05T03:06:00+09:00,4.1,��,6.3,���쐼,25.1,95.1,0,0,0,16.5
2021-07-05T03:07:00+09:00,4,��,6.3,���쐼,25.1,95.2,0,0,0,16.5
2021-07-05T03:08:00+09:00,3.8,��,6.3,���쐼,25.1,95.2,0,0,0,16.5
2021-07-05T03:09:00+09:00,3.5,���쐼,6.2,��,25.1,95.3,0,0,0,16.5
2021-07-05T03:10:00+09:00,3.3,���쐼,6.2,��,25.1,95.4,0,0,0,16.5
2021-07-05T03:11:00+09:00,3.2,���쐼,6.2,��,25.1,95.4,0,0,0,16.5
2021-07-05T03:12:00+09:00,3,���쐼,6,���쐼,25.1,95.5,0,0,0,16.5
2021-07-05T03:13:00+09:00,2.8,���쐼,6,���쐼,25.1,95.5,0,0,0,16.5
2021-07-05T03:14:00+09:00,2.5,���쐼,5,��,25.1,95.5,0,0,0,16.5
2021-07-05T03:15:00+09:00,2.4,���쐼,5,��,25.1,95.6,0,0,0,16.5
2021-07-05T03:16:00+09:00,2.3,���쐼,4.7,��,25.1,95.6,0,0,0,16.5
2021-07-05T03:17:00+09:00,2.3,���쐼,4.3,���쐼,25.1,95.6,0,0,0,16.5
2021-07-05T03:18:00+09:00,2.3,���쐼,5.2,��,25.1,95.6,0,0,0,16.5
2021-07-05T03:19:00+09:00,2.5,���쐼,5.2,��,25.1,95.5,0,0,0,16.5
2021-07-05T03:20:00+09:00,2.6,���쐼,5.2,��,25.1,95.6,0,0,0,16.5
2021-07-05T03:21:00+09:00,2.6,���쐼,5.2,��,25.1,95.6,0,0,0,16.5
2021-07-05T03:22:00+09:00,2.8,���쐼,5.2,��,25.1,95.6,0,0,0,16.5
2021-07-05T03:23:00+09:00,2.9,���쐼,5.2,��,25,95.6,0,0,0,16.5
2021-07-05T03:24:00+09:00,2.9,���쐼,5.2,��,25,95.6,0,0,0,16.5
2021-07-05T03:25:00+09:00,2.8,���쐼,5.2,��,25,95.7,0,0,0,16.5
2021-07-05T03:26:00+09:00,2.7,���쐼,5.2,��,25,95.7,0,0,0,16.5
2021-07-05T03:27:00+09:00,2.7,���쐼,5.2,��,25,95.7,0,0,0,16.5
2021-07-05T03:28:00+09:00,2.6,���쐼,5.2,��,25,95.7,0,0,0,16.5
2021-07-05T03:29:00+09:00,2.6,���쐼,5.4,���쐼,25,95.7,0,0,0,16.5
2021-07-05T03:30:00+09:00,2.6,���쐼,5.9,��,25,95.8,0,0,0,16.5
2021-07-05T03:31:00+09:00,2.8,���쐼,5.9,��,25,95.8,0,0,0,16.5
2021-07-05T03:32:00+09:00,2.9,���쐼,6.3,���쐼,25,95.9,0,0,0,16.5
2021-07-05T03:33:00+09:00,3.2,���쐼,7.1,���쐼,25,95.8,0,0,0,16.5
2021-07-05T03:34:00+09:00,3.5,��,7.1,���쐼,25,95.8,0,0,0,16.5
2021-07-05T03:35:00+09:00,3.7,��,7.1,���쐼,25,95.8,0,0,0,16.5
2021-07-05T03:36:00+09:00,3.9,��,7.1,���쐼,25,95.8,0,0,0,16.5
2021-07-05T03:37:00+09:00,4.1,��,7.1,���쐼,25.1,96,0,0,0,16.5
2021-07-05T03:38:00+09:00,4.3,��,7.1,���쐼,25.1,95.9,0,0,0,16.5
2021-07-05T03:39:00+09:00,4.5,��,7.1,���쐼,25.1,95.9,0,0,0,16.5
2021-07-05T03:40:00+09:00,4.6,��,7.1,���쐼,25.1,95.7,0,0,0,16.5
2021-07-05T03:41:00+09:00,4.8,��,7.1,���쐼,25.1,95.7,0,0,0,16.5
2021-07-05T03:42:00+09:00,4.8,��,7.1,���쐼,25.1,95.8,0,0,0,16.5
2021-07-05T03:43:00+09:00,4.6,��,7,�쐼,25.1,95.7,0,0,0,16.5
2021-07-05T03:44:00+09:00,4.6,��,7.3,���쐼,25.1,95.7,0,0,0,16.5
2021-07-05T03:45:00+09:00,4.5,��,7.3,���쐼,25.1,95.7,0,0,0,16.5
2021-07-05T03:46:00+09:00,4.4,���쐼,7.3,���쐼,25.1,95.7,0,0,0,16.5
2021-07-05T03:47:00+09:00,4.2,���쐼,7.3,���쐼,25,95.6,0,0,0,16.5
2021-07-05T03:48:00+09:00,4.2,��,7.3,���쐼,25,95.6,0,0,0,16.5
2021-07-05T03:49:00+09:00,4.2,��,7.3,���쐼,25,95.6,0,0,0,16.5
2021-07-05T03:50:00+09:00,4.1,��,7.3,���쐼,25.1,95.7,0,0,0,16.5
2021-07-05T03:51:00+09:00,4.1,��,7.3,���쐼,25.1,95.8,0,0,0,16.5
2021-07-05T03:52:00+09:00,4.1,���쐼,7.3,���쐼,25.1,95.5,0,0,0,16.5
2021-07-05T03:53:00+09:00,4.1,��,7.3,���쐼,25.1,95.5,0,0,0,16.5
2021-07-05T03:54:00+09:00,4.2,��,7,��,25,95.4,0,0,0,16.5
2021-07-05T03:55:00+09:00,4.2,��,7,��,25,95.5,0,0,0,16.5
2021-07-05T03:56:00+09:00,4.4,��,7,��,25,95.5,0,0,0,16.5
2021-07-05T03:57:00+09:00,4.6,��,7,��,25,95.5,0,0,0,16.5
2021-07-05T03:58:00+09:00,4.4,���쐼,7,��,25,95.5,0,0,0,16.5
2021-07-05T03:59:00+09:00,4.1,���쐼,6.9,��,25,95.5,0,0,0,16.5
2021-07-05T04:00:00+09:00,3.8,���쐼,6.8,���쐼,25,95.5,0,0,0,16.5
2021-07-05T04:01:00+09:00,3.7,���쐼,6.8,���쐼,25,95.5,0,0,0,16.5
2021-07-05T04:02:00+09:00,3.5,���쐼,6.8,���쐼,25,95.5,0,0,0,16.5
2021-07-05T04:03:00+09:00,3.2,���쐼,6.8,���쐼,25,95.5,0,0,0,16.5
2021-07-05T04:04:00+09:00,2.9,���쐼,6.1,��,25,95.6,0,0,0,16.5
2021-07-05T04:05:00+09:00,2.5,���쐼,6.1,��,24.9,95.4,0,0,0,16.5
2021-07-05T04:06:00+09:00,2.2,���쐼,5.7,��,25,95.5,0,0,0,16.5
2021-07-05T04:07:00+09:00,1.9,���쐼,5.3,��,25,95.6,0,0,0,16.5
2021-07-05T04:08:00+09:00,1.9,���쐼,5.3,��,25,95.6,0,0,0,16.5
2021-07-05T04:09:00+09:00,1.9,���쐼,5.3,��,25,95.5,0,0,0,16.5
2021-07-05T04:10:00+09:00,2,���쐼,5.3,��,25,95.5,0,0,0,16.5
2021-07-05T04:11:00+09:00,1.8,���쐼,4.6,���쐼,25,95.4,0,0,0,16.5
2021-07-05T04:12:00+09:00,1.9,���쐼,4.6,���쐼,25.1,95.5,0,0,0,16.5
2021-07-05T04:13:00+09:00,1.8,���쐼,4.6,���쐼,25.1,95.5,0,0,0,16.5
2021-07-05T04:14:00+09:00,1.9,���쐼,4.6,���쐼,25.1,95.5,0,0,0,16.5
2021-07-05T04:15:00+09:00,2.3,���쐼,5.6,���쐼,25.1,95.4,0,0,0,16.5
2021-07-05T04:16:00+09:00,2.3,���쐼,5.6,���쐼,25.1,95.4,0,0,0,16.5
2021-07-05T04:17:00+09:00,2.4,���쐼,5.6,���쐼,25.1,95.3,0,0,0,16.5
2021-07-05T04:18:00+09:00,2.4,���쐼,5.6,���쐼,25.2,95.3,0,0,0,16.5
2021-07-05T04:19:00+09:00,2.5,���쐼,5.6,���쐼,25.3,95.2,0,0,0,16.5
2021-07-05T04:20:00+09:00,2.5,���쐼,5.6,���쐼,25.3,94.8,0,0,0,16.5
2021-07-05T04:21:00+09:00,2.5,���쐼,5.6,���쐼,25.3,94.7,0,0,0,16.5
2021-07-05T04:22:00+09:00,2.4,���쐼,5.6,���쐼,25.4,94.6,0,0,0,16.5
2021-07-05T04:23:00+09:00,2.5,���쐼,5.6,���쐼,25.3,94.3,0,0,0,16.5
2021-07-05T04:24:00+09:00,2.5,���쐼,5.6,���쐼,25.3,94.2,0,0,0,16.5
2021-07-05T04:25:00+09:00,2.3,���쐼,4.6,��,25.4,94.1,0,0,0,16.5
2021-07-05T04:26:00+09:00,2.4,���쐼,4.6,��,25.5,93.6,0,0,0,16.5
2021-07-05T04:27:00+09:00,2.5,���쐼,5.4,���쐼,25.5,93.6,0,0,0,16.5
2021-07-05T04:28:00+09:00,2.7,���쐼,6.3,��,25.5,93.5,0,0,0,16.5
2021-07-05T04:29:00+09:00,2.7,���쐼,6.3,��,25.4,93.3,0,0,0,16.5
2021-07-05T04:30:00+09:00,2.8,���쐼,6.3,��,25.4,93.2,0,0,0,16.5
2021-07-05T04:31:00+09:00,2.9,���쐼,6.3,��,25.4,93.2,0,0,0,16.5
2021-07-05T04:32:00+09:00,2.9,���쐼,6.3,��,25.4,93.2,0,0,0,16.5
2021-07-05T04:33:00+09:00,3,���쐼,6.3,��,25.4,93.1,0,0,0,16.5
2021-07-05T04:34:00+09:00,3.1,���쐼,6.3,��,25.4,93.1,0,0,0,16.5
2021-07-05T04:35:00+09:00,3.2,���쐼,6.3,��,25.4,93.2,0,0,0,16.5
2021-07-05T04:36:00+09:00,3.3,���쐼,6.3,��,25.5,93.2,0,0,0,16.5
2021-07-05T04:37:00+09:00,3.2,���쐼,6.3,��,25.5,93,0,0,0,16.5
2021-07-05T04:38:00+09:00,3,���쐼,5.5,���쐼,25.4,92.8,0,0,0,16.5
2021-07-05T04:39:00+09:00,3,���쐼,5.5,���쐼,25.4,92.9,0,0,0,16.5
2021-07-05T04:40:00+09:00,3,���쐼,5.5,���쐼,25.4,93,0,0,0,16.5
2021-07-05T04:41:00+09:00,3.1,���쐼,5.7,��,25.4,93,0,0,0,16.5
2021-07-05T04:42:00+09:00,3.2,���쐼,5.7,��,25.4,92.9,0,0,0,16.5
2021-07-05T04:43:00+09:00,3.3,���쐼,5.7,��,25.4,93,0,0,0,16.5
2021-07-05T04:44:00+09:00,3.2,���쐼,5.7,��,25.4,92.7,0,0,0,16.5
2021-07-05T04:45:00+09:00,3.1,���쐼,5.7,��,25.3,92.9,0,0,0,16.5
2021-07-05T04:46:00+09:00,3.2,���쐼,5.9,���쐼,25.4,93,0,0,0,16.5
2021-07-05T04:47:00+09:00,3.4,���쐼,6.5,��,25.3,92.8,0,0,0,16.5
2021-07-05T04:48:00+09:00,3.4,���쐼,6.5,��,25.3,92.9,0,0,0,16.5
2021-07-05T04:49:00+09:00,3.6,���쐼,6.6,���쐼,25.3,93,0,0,0,16.5
2021-07-05T04:50:00+09:00,3.8,��,6.6,���쐼,25.3,93,0,0,0,16.5
2021-07-05T04:51:00+09:00,3.8,���쐼,6.6,���쐼,25.4,93.1,0,0,0,16.5
2021-07-05T04:52:00+09:00,3.8,���쐼,6.9,��,25.3,93.1,0,0,0,16.5
2021-07-05T04:53:00+09:00,3.9,��,6.9,��,25.3,93,0,0,0,16.5
2021-07-05T04:54:00+09:00,4,��,6.9,��,25.4,92.9,0,0,0,16.5
2021-07-05T04:55:00+09:00,4.1,��,6.9,��,25.4,92.9,0,0,0,16.5
2021-07-05T04:56:00+09:00,4.2,���쐼,6.9,��,25.3,92.7,0,0,0,16.5
2021-07-05T04:57:00+09:00,4.1,���쐼,6.9,��,25.3,92.7,0,0,0,16.5
2021-07-05T04:58:00+09:00,4.1,���쐼,6.9,��,25.2,92.9,0,0,0,16.5
2021-07-05T04:59:00+09:00,3.8,���쐼,6.9,��,25.2,93.1,0,0,0,16.5
2021-07-05T05:00:00+09:00,3.8,���쐼,6.9,��,25.3,93.2,0,0,0,16.5
2021-07-05T05:01:00+09:00,4,���쐼,6.9,��,25.2,93.4,0,0,0,16.5
2021-07-05T05:02:00+09:00,4,���쐼,7.3,�쐼,25.2,93.2,0,0,0,16.5
2021-07-05T05:03:00+09:00,3.8,���쐼,7.3,�쐼,25.2,93.5,0,0,0,16.5
2021-07-05T05:04:00+09:00,3.7,���쐼,7.3,�쐼,25.2,93.5,0,0,0,16.5
2021-07-05T05:05:00+09:00,3.7,���쐼,7.3,�쐼,25.2,93.4,0,0,0,16.5
2021-07-05T05:06:00+09:00,3.6,���쐼,7.3,�쐼,25.2,93.6,0,0,0,16.5
2021-07-05T05:07:00+09:00,3.5,���쐼,7.3,�쐼,25.2,93.7,0,0,0,16.5
2021-07-05T05:08:00+09:00,3.6,���쐼,7.3,�쐼,25.2,93.6,0,0,0,16.5
2021-07-05T05:09:00+09:00,3.8,���쐼,7.3,�쐼,25.2,93.9,0,0,0,16.5
2021-07-05T05:10:00+09:00,3.7,��,7.3,�쐼,25.1,93.8,0,0,0,16.5
2021-07-05T05:11:00+09:00,3.6,��,7.3,�쐼,25.2,94.1,0,0,0,16.5
2021-07-05T05:12:00+09:00,3.4,��,5.7,���쐼,25.3,94.3,0,0,0,16.5
2021-07-05T05:13:00+09:00,3.4,��,5.7,���쐼,25.3,93.9,0,0,0,16.5
2021-07-05T05:14:00+09:00,3.4,��,5.7,���쐼,25.3,93.8,0,0,0,16.5
2021-07-05T05:15:00+09:00,3.4,��,5.7,���쐼,25.2,93.7,0,0,0,16.5
2021-07-05T05:16:00+09:00,3.4,��,5.7,���쐼,25.2,93.9,0,0,0,16.5
2021-07-05T05:17:00+09:00,3.4,��,5.8,���k��,25.2,94,0,0,0,16.5
2021-07-05T05:18:00+09:00,3.3,��,5.8,���k��,25.2,94.2,0,0,0,16.5
2021-07-05T05:19:00+09:00,3.3,��,5.8,���k��,25.3,94.4,0,0,0,16.5
2021-07-05T05:20:00+09:00,3.3,��,5.8,���k��,25.3,94.3,0,0,0,16.5
2021-07-05T05:21:00+09:00,3.3,��,5.8,���k��,25.2,93.8,0,0,0,16.5
2021-07-05T05:22:00+09:00,3.3,��,5.8,���k��,25.2,93.9,0,0,0,16.5
2021-07-05T05:23:00+09:00,3.3,��,5.8,���k��,25.2,94,0,0,0,16.5
2021-07-05T05:24:00+09:00,3.2,��,5.8,���k��,25.2,93.9,0,0,0,16.5
2021-07-05T05:25:00+09:00,3.2,���쐼,5.8,���k��,25.1,93.8,0,0,0,16.5
2021-07-05T05:26:00+09:00,3.1,���쐼,5.8,���k��,25.1,93.8,0,0,0,16.5
2021-07-05T05:27:00+09:00,3.1,���쐼,5.8,���쐼,25.2,93.9,0,0,0,16.5
2021-07-05T05:28:00+09:00,3,���쐼,5.8,���쐼,25.2,94,0,0,0,16.5
2021-07-05T05:29:00+09:00,3,���쐼,5.8,���쐼,25.2,93.9,0,0,0,16.5
2021-07-05T05:30:00+09:00,2.9,���쐼,5.8,���쐼,25.2,93.7,0,0,0,16.5
2021-07-05T05:31:00+09:00,2.9,���쐼,5.3,���쐼,25.2,93.8,0,0,0,16.5
2021-07-05T05:32:00+09:00,3.1,���쐼,5.3,���쐼,25.2,93.9,0,0,0,16.5
2021-07-05T05:33:00+09:00,3,���쐼,5.3,���쐼,25.3,93.9,0,0,0,16.5
2021-07-05T05:34:00+09:00,3.2,���쐼,5.3,���쐼,25.3,93.8,0,0,0,16.5
2021-07-05T05:35:00+09:00,3,��,5.3,���쐼,25.2,93.4,0,0,0,16.5
2021-07-05T05:36:00+09:00,3.1,��,6.5,��,25.3,93.7,0,0,0,16.5
2021-07-05T05:37:00+09:00,3.2,��,6.5,��,25.2,93.4,0,0,0,16.5
2021-07-05T05:38:00+09:00,3.4,��,6.5,��,25.3,93.5,0,0,0,16.5
2021-07-05T05:39:00+09:00,3.4,���쐼,6.5,��,25.3,93.4,0,0,0,16.5
2021-07-05T05:40:00+09:00,3.5,���쐼,6.5,��,25.3,93.4,0,0,0,16.5
2021-07-05T05:41:00+09:00,3.5,���쐼,6.5,��,25.3,93.6,0,0,0,16.5
2021-07-05T05:42:00+09:00,3.4,���쐼,6.5,��,25.3,93.4,0,0,0,16.5
2021-07-05T05:43:00+09:00,3.5,���쐼,6.5,��,25.3,93.2,0,0,0,16.5
2021-07-05T05:44:00+09:00,3.4,���쐼,6.5,��,25.3,93.2,0,0,0,16.5
2021-07-05T05:45:00+09:00,3.7,���쐼,6.5,��,25.3,93,0,0,0,16.5
2021-07-05T05:46:00+09:00,3.5,���쐼,6.3,��,25.3,93,0,0,0,16.5
2021-07-05T05:47:00+09:00,3.4,���쐼,6,���쐼,25.3,93.2,0,0,0,16.5
2021-07-05T05:48:00+09:00,3.3,���쐼,6,���쐼,25.3,93.1,0,0,0,16.5
2021-07-05T05:49:00+09:00,3.2,���쐼,6.6,�쐼,25.4,93.2,0,0,0,16.5
2021-07-05T05:50:00+09:00,3.2,���쐼,6.6,�쐼,25.4,92.9,0,0,0,16.5
2021-07-05T05:51:00+09:00,3.1,���쐼,6.6,�쐼,25.4,92.6,0,0,0,16.5
2021-07-05T05:52:00+09:00,3.1,���쐼,6.6,�쐼,25.4,92.5,0,0,0,16.5
2021-07-05T05:53:00+09:00,3.2,���쐼,6.6,�쐼,25.6,92.3,0,0,0,16.5
2021-07-05T05:54:00+09:00,3.2,���쐼,6.6,�쐼,25.6,92,0,0,0,16.5
2021-07-05T05:55:00+09:00,3.2,���쐼,6.6,�쐼,25.7,91.5,0,0,0,16.5
2021-07-05T05:56:00+09:00,3.2,���쐼,6.6,�쐼,25.7,91.1,0,0,0,16.5
2021-07-05T05:57:00+09:00,3.3,���쐼,6.6,�쐼,25.7,90.9,0,0,0,16.5
2021-07-05T05:58:00+09:00,3.4,���쐼,6.6,�쐼,25.8,90.5,0,0,0,16.5
2021-07-05T05:59:00+09:00,3.4,���쐼,5.9,���쐼,25.8,90.2,0,0,0,16.5
2021-07-05T06:00:00+09:00,3.4,���쐼,5.9,���쐼,25.8,90.1,0,0,0,16.5
2021-07-05T06:01:00+09:00,3.6,���쐼,5.9,���쐼,25.8,89.9,0,0,0,16.5
2021-07-05T06:02:00+09:00,3.6,���쐼,5.9,���쐼,25.7,89.7,0,0,0,16.5
2021-07-05T06:03:00+09:00,3.7,���쐼,5.9,���쐼,25.8,89.6,0,0,0,16.5
2021-07-05T06:04:00+09:00,3.7,���쐼,5.9,���쐼,25.8,89.5,0,0,0,16.5
2021-07-05T06:05:00+09:00,3.5,���쐼,5.6,���쐼,25.8,89.7,0,0,0,16.5
2021-07-05T06:06:00+09:00,3.4,���쐼,5.6,���쐼,25.7,89.5,0,0,0,16.5
2021-07-05T06:07:00+09:00,3.3,���쐼,5.6,���쐼,25.8,89.6,0,0,0,16.5
2021-07-05T06:08:00+09:00,3.3,���쐼,5.6,���쐼,25.8,89.6,0,0,0,16.5
2021-07-05T06:09:00+09:00,3.3,���쐼,5.6,���쐼,25.8,89.6,0,0,0,16.5
2021-07-05T06:10:00+09:00,3.2,���쐼,5.6,���쐼,25.9,89.4,0,0,0,16.5
2021-07-05T06:11:00+09:00,3,���쐼,5.6,���쐼,25.9,89.3,0,0,0,16.5
2021-07-05T06:12:00+09:00,3,���쐼,5.6,���쐼,25.9,89.1,0,0,0,16.5
2021-07-05T06:13:00+09:00,3,���쐼,5.6,���쐼,25.9,89,0,0,0,16.5
2021-07-05T06:14:00+09:00,3,���쐼,5.4,��,26,88.3,0,0,0,16.5
2021-07-05T06:15:00+09:00,3,���쐼,5.4,��,26.1,87.9,0,0,0,16.5
2021-07-05T06:16:00+09:00,3,���쐼,5.4,��,26.1,87.6,0,0,0,16.5
2021-07-05T06:17:00+09:00,3,���쐼,5.4,��,26.2,87,0,0,0,16.5
2021-07-05T06:18:00+09:00,2.9,���쐼,5.4,��,26.2,86.5,0,0,0,16.5
2021-07-05T06:19:00+09:00,2.8,���쐼,5.4,��,26.1,86.7,0,0,0,16.5
2021-07-05T06:20:00+09:00,3,���쐼,5.4,��,25.9,87,0,0,0,16.5
2021-07-05T06:21:00+09:00,3,���쐼,5.4,��,25.8,87.5,0,0,0,16.5
2021-07-05T06:22:00+09:00,3,���쐼,5.4,��,25.8,88.2,0,0,0,16.5